IRIDIUM 86 [-] (25528 NORAD) Tracking and Keplerian Element Data

This shows tracking and keplerian element data for the satellite.

Feedback or suggestion? Click here.




ElementValue
Catalog25528
NameIRIDIUM 86 [-]
Epoch Orbit4790
Epoch Day278.25234233
Epoch Year2018
RAAN147.9766
Inclination86.3784
Eccentricity0.0040876
Argument of Perigee28.8947
Mean Anonmoly331.7263
Mean Motion16.42097639
Decay Rate0.16532404
L11 25528U 98066B 18278.25234233 .16532404 -88396-6 33224-3 0 9994
L22 25528 86.3784 147.9766 0040876 28.8947 331.7263 16.42097639 47905

Live tracking and technical data element details for IRIDIUM 86 [-] (NORAD 25528). IRIDIUM 86 [-] can be tracked NOW for your location showing map with azimuth and elevation plus other details from your city location.

Track the satellite on the map from your city or location and see movement details for azimuth, elevation, latitude, longitude, range, height, and movement on the map or in text.







IsCatalogInMostPopularTable: catalog: 25528, numindb: 53
Update: records affected: 1



GetName: 25528 IRIDIUM 86 [-]

Hit Count: updated at: Sat, 15 Dec 2018 19:30:38 GMT